Weather History for Cumberland, WI

Change the Weather History Date:

Monday, August 19, 2013

  Actual Average (KRPD) Record (KRPD)
Temperature  
Mean Temperature 68 °F -  
Max Temperature 80 °F 75 °F 93 °F (2003)
Min Temperature 57 °F 54 °F 41 °F (2004)
Cooling Degree Days 4    
Growing Degree Days 18 (Base 50)    
Moisture  
Dew Point 60 °F    
Average Humidity 75    
Maximum Humidity 94    
Minimum Humidity 51    
Precipitation  
Precipitation 0.00 in - - ()
Sea Level Pressure  
Sea Level Pressure 29.99 in    
Wind  
Wind Speed 5 mph (SSW)    
Max Wind Speed 10 mph    
Max Gust Speed 16 mph    
Visibility 10 miles    
Events      
Averages and records for this station are not official NWS values.
T = Trace of Precipitation, MM = Missing Value Source: NWS Daily Summary

Daily Weather History Graph

Daily Weather History Graph

Search for Another Location

Airport:

Trip Planner

Search our weather history database for the weather conditions in past years. The results will help you decide how hot, cold, wet, or windy it might be!

Date:

Astronomy

Aug. 19, 2013 Rise Set
Actual Time 6:13 AM CDT 8:08 PM CDT
Civil Twilight 5:41 AM CDT 8:40 PM CDT
Nautical Twilight 5:02 AM CDT 9:18 PM CDT
Astronomical Twilight 4:19 AM CDT 10:01 PM CDT
Moon 6:59 PM CDT (8/19) 4:31 AM CDT (8/19)
Length of Visible Light 14h 58m
Length of Day
13h 54m
Waxing Gibbous, 97% of the Moon is Illuminated
Aug 19
Waxing Gibbous
Aug 20
Full
Aug 28
Last Quarter
Sep 5
New
Sep 12
First Quarter

Hourly Weather History & Observations

Time (CDT) Temp. Heat Index Dew Point Humidity Pressure Visibility Wind Dir Wind Speed Gust Speed Precip Events Conditions
12:15 AM 57.2 °F - 53.6 °F 88% 30.04 in 10.0 mi South 4.6 mph - N/A   Clear
12:35 AM 57.2 °F - 55.4 °F 94% 30.05 in 10.0 mi SSW 4.6 mph - N/A   Mostly Cloudy
12:55 AM 60.8 °F - 55.4 °F 82% 30.04 in 10.0 mi South 4.6 mph - N/A   Mostly Cloudy
1:15 AM 60.8 °F - 55.4 °F 82% 30.04 in 10.0 mi South 5.8 mph - N/A   Overcast
1:35 AM 60.8 °F - 55.4 °F 82% 30.03 in 10.0 mi South 4.6 mph - N/A   Overcast
1:55 AM 60.8 °F - 55.4 °F 82% 30.03 in 10.0 mi SSW 3.5 mph - N/A   Overcast
2:15 AM 60.8 °F - 55.4 °F 82% 30.03 in 10.0 mi South 5.8 mph - N/A   Overcast
2:35 AM 60.8 °F - 57.2 °F 88% 30.03 in 10.0 mi South 4.6 mph - N/A   Overcast
2:55 AM 60.8 °F - 57.2 °F 88% 30.02 in 10.0 mi Calm Calm - N/A   Overcast
3:15 AM 59.0 °F - 55.4 °F 88% 30.02 in 10.0 mi Calm Calm - N/A   Scattered Clouds
3:35 AM 60.8 °F - 55.4 °F 82% 30.02 in 10.0 mi Calm Calm - N/A   Scattered Clouds
3:55 AM 60.8 °F - 57.2 °F 88% 30.02 in 10.0 mi Calm Calm - N/A   Overcast
4:15 AM 62.6 °F - 57.2 °F 82% 30.02 in 10.0 mi SW 5.8 mph - N/A   Overcast
4:35 AM 62.6 °F - 57.2 °F 82% 30.01 in 10.0 mi SW 5.8 mph - N/A   Overcast
4:55 AM 62.6 °F - 57.2 °F 82% 30.01 in 10.0 mi SSW 5.8 mph - N/A   Overcast
5:15 AM 62.6 °F - 57.2 °F 82% 30.01 in 10.0 mi SSW 6.9 mph - N/A   Overcast
5:35 AM 60.8 °F - 55.4 °F 82% 30.00 in 10.0 mi SSW 4.6 mph - N/A   Scattered Clouds
5:55 AM 60.8 °F - 55.4 °F 82% 30.00 in 10.0 mi SSW 4.6 mph - N/A   Clear
6:15 AM 60.8 °F - 55.4 °F 82% 30.00 in 10.0 mi South 4.6 mph - N/A   Clear
6:35 AM 60.8 °F - 55.4 °F 82% 29.99 in 10.0 mi South 3.5 mph - N/A   Clear
6:55 AM 60.8 °F - 55.4 °F 82% 29.98 in 10.0 mi South 4.6 mph - N/A   Clear
7:15 AM 60.8 °F - 55.4 °F 82% 29.99 in 10.0 mi South 3.5 mph - N/A   Clear
7:35 AM 60.8 °F - 57.2 °F 88% 30.00 in 10.0 mi SSW 4.6 mph - N/A   Clear
7:55 AM 62.6 °F - 57.2 °F 82% 30.00 in 10.0 mi South 3.5 mph - N/A   Scattered Clouds
8:15 AM 62.6 °F - 57.2 °F 82% 30.00 in 10.0 mi South 3.5 mph - N/A   Scattered Clouds
8:35 AM 64.4 °F - 59.0 °F 83% 30.01 in 10.0 mi SSW 5.8 mph - N/A   Clear
8:55 AM 64.4 °F - 59.0 °F 83% 30.02 in 10.0 mi SSW 4.6 mph - N/A   Clear
9:15 AM 64.4 °F - 59.0 °F 83% 30.02 in 10.0 mi Calm Calm - N/A   Scattered Clouds
9:35 AM 66.2 °F - 59.0 °F 78% 30.02 in 10.0 mi South 3.5 mph - N/A   Scattered Clouds
9:55 AM 68.0 °F - 59.0 °F 73% 30.02 in 10.0 mi SSW 4.6 mph - N/A   Mostly Cloudy
10:15 AM 68.0 °F - 59.0 °F 73% 30.02 in 10.0 mi South 5.8 mph - N/A   Overcast
10:35 AM 68.0 °F - 59.0 °F 73% 30.02 in 10.0 mi South 8.1 mph - N/A   Overcast
10:55 AM 69.8 °F - 60.8 °F 73% 30.02 in 10.0 mi SSW 4.6 mph - N/A   Overcast
11:15 AM 69.8 °F - 60.8 °F 73% 30.01 in 10.0 mi SSW 6.9 mph - N/A   Mostly Cloudy
11:35 AM 71.6 °F - 60.8 °F 69% 30.01 in 10.0 mi South 6.9 mph - N/A   Scattered Clouds
11:55 AM 71.6 °F - 60.8 °F 69% 30.01 in 10.0 mi SSW 9.2 mph - N/A   Clear
12:15 PM 71.6 °F - 62.6 °F 73% 30.01 in 10.0 mi South 4.6 mph - N/A   Scattered Clouds
12:35 PM 73.4 °F - 62.6 °F 69% 30.00 in 10.0 mi SSW 5.8 mph - N/A   Scattered Clouds
12:55 PM 73.4 °F - 62.6 °F 69% 30.00 in 10.0 mi SSW 5.8 mph - N/A   Mostly Cloudy
1:15 PM 75.2 °F - 62.6 °F 65% 29.99 in 10.0 mi SSW 8.1 mph - N/A   Scattered Clouds
1:35 PM 77.0 °F - 62.6 °F 61% 29.99 in 10.0 mi SW 5.8 mph - N/A   Mostly Cloudy
1:55 PM 77.0 °F - 62.6 °F 61% 29.99 in 10.0 mi South 8.1 mph - N/A   Overcast
2:15 PM 77.0 °F - 62.6 °F 61% 29.99 in 10.0 mi SSW 9.2 mph - N/A   Overcast
2:35 PM 78.8 °F - 62.6 °F 57% 29.98 in 10.0 mi SSW 6.9 mph - N/A   Mostly Cloudy
2:55 PM 78.8 °F - 62.6 °F 57% 29.98 in 10.0 mi SSW 6.9 mph - N/A   Clear
3:15 PM 78.8 °F - 62.6 °F 57% 29.98 in 10.0 mi SSW 10.4 mph - N/A   Clear
3:35 PM 80.6 °F 81.8 °F 62.6 °F 54% 29.97 in 10.0 mi SSW 9.2 mph - N/A   Clear
3:55 PM 80.6 °F 81.8 °F 62.6 °F 54% 29.97 in 10.0 mi SSW 10.4 mph 16.1 mph N/A   Clear
4:15 PM 80.6 °F 81.5 °F 60.8 °F 51% 29.97 in 10.0 mi SSW 9.2 mph 16.1 mph N/A   Clear
4:35 PM 80.6 °F 81.8 °F 62.6 °F 54% 29.97 in 10.0 mi SSW 9.2 mph - N/A   Scattered Clouds
4:55 PM 80.6 °F 81.8 °F 62.6 °F 54% 29.96 in 10.0 mi SW 9.2 mph - N/A   Scattered Clouds
5:15 PM 80.6 °F 81.5 °F 60.8 °F 51% 29.96 in 10.0 mi SSW 10.4 mph - N/A   Mostly Cloudy
5:35 PM 80.6 °F 81.5 °F 60.8 °F 51% 29.96 in 10.0 mi SSW 10.4 mph - N/A   Mostly Cloudy
5:55 PM 78.8 °F - 62.6 °F 57% 29.95 in 10.0 mi SSW 8.1 mph - N/A   Mostly Cloudy
6:15 PM 78.8 °F - 62.6 °F 57% 29.95 in 10.0 mi South 5.8 mph - N/A   Scattered Clouds
6:35 PM 78.8 °F - 64.4 °F 61% 29.95 in 10.0 mi South 8.1 mph - N/A   Clear
6:55 PM 77.0 °F - 62.6 °F 61% 29.95 in 10.0 mi South 6.9 mph - N/A   Clear
7:15 PM 77.0 °F - 64.4 °F 65% 29.94 in 10.0 mi South 5.8 mph - N/A   Clear
7:35 PM 75.2 °F - 64.4 °F 69% 29.94 in 10.0 mi South 5.8 mph - N/A   Clear
7:55 PM 73.4 °F - 64.4 °F 73% 29.95 in 10.0 mi South 4.6 mph - N/A   Clear
8:15 PM 71.6 °F - 64.4 °F 78% 29.95 in 10.0 mi South 4.6 mph - N/A   Clear
8:35 PM 69.8 °F - 64.4 °F 83% 29.95 in 10.0 mi SSE 5.8 mph - N/A   Scattered Clouds
8:55 PM 68.0 °F - 64.4 °F 88% 29.96 in 10.0 mi South 4.6 mph - N/A   Scattered Clouds
9:15 PM 68.0 °F - 64.4 °F 88% 29.96 in 10.0 mi South 4.6 mph - N/A   Clear
9:35 PM 68.0 °F - 64.4 °F 88% 29.96 in 10.0 mi South 4.6 mph - N/A   Clear
9:55 PM 68.0 °F - 64.4 °F 88% 29.96 in 10.0 mi South 4.6 mph - N/A   Clear
10:15 PM 68.0 °F - 62.6 °F 83% 29.96 in 10.0 mi South 4.6 mph - N/A   Clear
10:35 PM 66.2 °F - 62.6 °F 88% 29.96 in 10.0 mi South 4.6 mph - N/A   Clear
10:55 PM 66.2 °F - 62.6 °F 88% 29.96 in 10.0 mi South 3.5 mph - N/A   Clear
11:15 PM 64.4 °F - 62.6 °F 94% 29.96 in 7.0 mi South 3.5 mph - N/A   Clear
11:35 PM 64.4 °F - 62.6 °F 94% 29.96 in 7.0 mi South 4.6 mph - N/A   Clear
11:55 PM 64.4 °F - 62.6 °F 94% 29.96 in 7.0 mi South 5.8 mph - N/A   Scattered Clouds